[[{"header":{"parameterUnit":"m.s-1","parameterCategory":1,"la1":30.2991,"la2":30.254,"lo1":-89.0895,"lo2":-89.0444,"dy":0.0017,"dx":0.0017,"nx":28,"ny":28,"refTime":"2023-10-11T03:00:00:Z","depth":0,"parameterNumber":2,"parameterNumberName":"U-component_of_WINDS"},"data":[0,0,0,0,0,0,0,0,0,0,0,0,0,0,0,0,0,0,0,0,0,0,0,0,0,0,0,0,0,0,0,0,0,0,0,0,0,0,0,0,0,0,0,0,0,0,0,0,0,0,0,0,0,0,0,0,0,0,-1.5641,-1.5641,0,-1.5665,-1.5665,-1.5666,-1.5602,-1.56,-1.5598,-1.5596,-1.5621,-1.5623,-1.5626,0,0,0,0,0,0,0,0,0,0,0,0,0,-1.554,-1.5542,-1.5641,-1.5641,-1.5642,-1.5665,-1.5665,-1.5666,-1.5602,-1.56,-1.5597,-1.5595,-1.562,-1.5623,-1.5626,0,0,0,0,0,0,0,0,0,0,0,0,0,-1.5576,-1.5543,-1.5641,-1.5613,-1.561,-1.5665,-1.5665,-1.5666,-1.5603,-1.56,-1.5597,-1.5594,-1.5619,-1.5623,-1.5626,-1.5709,0,0,-1.5638,-1.564,0,0,0,0,0,0,0,0,-1.5574,-1.558,-1.5617,-1.5615,-1.5612,-1.5627,-1.5639,-1.568,-1.5603,-1.5606,-1.5596,-1.5593,-1.5625,-1.5628,-1.564,-1.571,-1.5711,-1.5638,-1.5641,-1.5642,-1.5643,0,0,0,0,0,0,0,-1.5571,-1.5578,-1.565,-1.5617,-1.5615,-1.5599,-1.5601,-1.5646,-1.5632,-1.5605,-1.5601,-1.5604,-1.5624,-1.5636,-1.564,-1.5712,-1.5638,-1.5641,-1.5644,-1.5645,-1.5852,-1.5855,0,0,0,0,0,0,-1.5573,-1.5577,-1.565,-1.5651,-1.5585,-1.5603,-1.5605,-1.5626,-1.5631,-1.5629,-1.5607,-1.5601,-1.5631,-1.5635,-1.564,-1.5738,-1.5642,-1.5646,-1.5648,-1.5848,-1.5852,-1.5856,0,0,0,0,0,0,-1.5571,-1.558,-1.5649,-1.5613,-1.562,-1.5608,-1.5631,-1.5628,-1.564,-1.5633,-1.563,-1.5622,-1.5629,-1.5635,-1.5693,-1.5738,-1.5647,-1.5651,-1.5845,-1.585,-1.5854,-1.5934,0,0,0,0,0,0,-1.5568,-1.5579,-1.5611,-1.5614,-1.5622,-1.5701,-1.5634,-1.563,-1.5647,-1.564,-1.5646,-1.5644,-1.5627,-1.5687,-1.5696,-1.5741,-1.5654,-1.5841,-1.5847,-1.5853,-1.5927,-1.5941,-1.5953,0,0,0,0,0,-1.5565,-1.5633,-1.5613,-1.5622,-1.5662,-1.5704,-1.5709,-1.5687,-1.565,-1.5682,-1.5677,-1.5644,-1.5731,-1.5694,-1.5703,-1.575,-1.5838,-1.5845,-1.5852,-1.5921,-1.5938,-1.5952,0,0,0,0,0,0,-1.5636,-1.5632,-1.5611,-1.5682,-1.5693,-1.5693,-1.5732,-1.5706,-1.5728,-1.5721,-1.5693,-1.5695,-1.5758,-1.5759,-1.5718,-1.5831,-1.5778,-1.5788,-1.5828,-1.5843,-1.5856,-1.5855,-1.5657,0,0,0,0,0,-1.5659,-1.5694,-1.5689,-1.5752,-1.5759,-1.5745,-1.5762,-1.5745,-1.5756,-1.5761,-1.576,-1.5772,-1.5802,-1.5823,-1.585,-1.5926,-1.5927,-1.5963,-1.5976,-1.5987,-1.5996,-1.6036,-1.6053,-1.588,-1.588,-1.5879,0,0,-1.5709,-1.5712,-1.5735,-1.5767,-1.5774,-1.581,-1.575,-1.5791,-1.5817,-1.5767,-1.5821,-1.5821,-1.5833,-1.5901,-1.593,-1.5904,-1.6043,-1.5996,-1.6004,-1.6008,-1.6046,-1.6062,-1.6077,-1.5885,-1.5884,-1.5883,0,0,-1.5819,-1.5824,-1.5877,-1.5885,-1.5897,-1.5887,-1.5899,-1.5903,-1.5901,-1.5955,-1.5918,-1.5949,-1.6001,-1.6011,-1.6023,-1.6135,-1.6106,-1.6145,-1.6212,-1.6252,-1.6265,-1.6277,-1.6318,-1.6333,-1.6153,-1.6154,-1.6154,0,-1.5879,-1.5933,-1.5908,-1.5952,-1.5966,-1.5922,-1.5975,-1.5985,-1.6005,-1.6016,-1.5986,-1.605,-1.6055,-1.6124,-1.6152,-1.6162,-1.6176,-1.6145,-1.6265,-1.6277,-1.6288,-1.6327,-1.6342,-1.6158,-1.6158,-1.6157,-1.6157,0,-1.6007,-1.6045,-1.6086,-1.6106,-1.6126,-1.6174,-1.6156,-1.6179,-1.6159,-1.6152,-1.6208,-1.6211,-1.6239,-1.6254,-1.6235,-1.6321,-1.6304,-1.627,-1.6217,-1.631,-1.6345,-1.636,-1.6165,-1.6163,-1.6162,-1.6161,0,0,-1.6163,-1.6168,-1.6184,-1.6193,-1.6202,-1.623,-1.6276,-1.6303,-1.6323,-1.6338,-1.6376,-1.6421,-1.6389,-1.6403,-1.6385,-1.642,-1.6509,-1.6382,-1.6382,-1.6406,-1.6604,-1.663,-1.6648,-1.6489,-1.6492,-1.6494,-1.6603,0,-1.6272,-1.6351,-1.633,-1.6409,-1.6444,-1.6401,-1.6442,-1.6451,-1.6446,-1.6474,-1.6467,-1.65,-1.6456,-1.6464,-1.6497,-1.6492,-1.6549,-1.6483,-1.6525,-1.6527,-1.6525,-1.6666,-1.6694,-1.6797,-1.6617,-1.662,-1.6621,0,-1.641,-1.643,-1.6513,-1.6516,-1.6529,-1.6566,-1.6588,-1.6616,-1.6626,-1.6619,-1.6634,-1.6609,-1.6654,-1.66,-1.6662,-1.6618,-1.6633,-1.6633,-1.6637,-1.6641,-1.6581,-1.6675,-1.683,-1.6846,-1.6643,-1.6641,-1.664,0,-1.6516,-1.6564,-1.662,-1.6628,-1.6633,-1.666,-1.6663,-1.667,-1.6687,-1.6706,-1.6717,-1.6742,-1.6755,-1.6775,-1.6756,-1.6719,-1.6822,-1.6766,-1.6818,-1.6818,-1.6843,-1.6842,-1.7003,-1.6851,-1.6851,-1.685,-1.685,0,-1.664,-1.6693,-1.6668,-1.6702,-1.676,-1.6734,-1.6792,-1.679,-1.6797,-1.683,-1.6794,-1.6826,-1.6799,-1.6829,-1.6815,-1.6869,-1.6875,-1.6871,-1.6867,-1.6875,-1.6876,-1.6886,-1.6878,-1.6855,-1.6854,-1.6853,-1.6852,0,-1.677,-1.6755,-1.6813,-1.6813,-1.6814,-1.6856,-1.6856,-1.6888,-1.6879,-1.6921,-1.693,-1.6916,-1.6949,-1.6933,-1.6967,-1.6957,-1.7027,-1.7012,-1.7024,-1.702,-1.7074,-1.7069,-1.7248,-1.727,-1.7104,-1.7105,-1.7106,0,-1.6851,-1.689,-1.6894,-1.6914,-1.6919,-1.6952,-1.6969,-1.6945,-1.6964,-1.6978,-1.7008,-1.7038,-1.7061,-1.7115,-1.7108,-1.7134,-1.7121,-1.7181,-1.7124,-1.7131,-1.7123,-1.7121,-1.7125,-1.7194,-1.7195,-1.7197,-1.7198,0,-1.6996,-1.6987,-1.7013,-1.7037,-1.7059,-1.7076,-1.7091,-1.7109,-1.7085,-1.7108,-1.7142,-1.7159,-1.7194,-1.7224,-1.7246,-1.7249,-1.722,-1.7216,-1.723,-1.7239,-1.7244,-1.7243,-1.7056,-1.7212,-1.7211,-1.721,-1.7209,-1.7209,-1.7104,-1.7138,-1.7145,-1.7176,-1.7184,-1.7198,-1.7228,-1.7223,-1.725,-1.7277,-1.726,-1.73,-1.7308,-1.7335,-1.7341,-1.7371,-1.7347,-1.7367,-1.7372,-1.7377,-1.7385,-1.7239,-1.7375,-1.7375,-1.7374,-1.7374,-1.7374,0,-1.7249,-1.7251,-1.7279,-1.7301,-1.7325,-1.7295,-1.7309,-1.7331,-1.7366,-1.7376,-1.7399,-1.7437,-1.7466,-1.7461,-1.7487,-1.7512,-1.75,-1.752,-1.7519,-1.752,-1.7405,-1.7391,-1.753,-1.753,-1.753,-1.753,-1.753,-1.753,-1.7326,-1.7381,-1.7373,-1.7431,-1.7433,-1.7471,-1.7482,-1.7495,-1.7503,-1.7547,-1.7571,-1.7567,-1.7571,-1.7597,-1.7622,-1.762,-1.7632,-1.7657,-1.765,-1.7543,-1.7528,-1.7513,-1.75,-1.766,-1.766,-1.7763,-1.7764,-1.7765]},{"header":{"parameterUnit":"m.s-1","parameterCategory":1,"la1":30.2991,"la2":30.254,"lo1":-89.0895,"lo2":-89.0444,"dy":0.0017,"dx":0.0017,"nx":28,"ny":28,"refTime":"2023-10-11T03:00:00:Z","depth":0,"parameterNumber":3,"parameterNumberName":"V-component_of_WINDS"},"data":[0,0,0,0,0,0,0,0,0,0,0,0,0,0,0,0,0,0,0,0,0,0,0,0,0,0,0,0,0,0,0,0,0,0,0,0,0,0,0,0,0,0,0,0,0,0,0,0,0,0,0,0,0,0,0,0,0,0,-4.7869,-4.787,0,-4.7908,-4.7909,-4.7909,-4.7845,-4.7843,-4.7841,-4.7839,-4.7875,-4.7878,-4.7881,0,0,0,0,0,0,0,0,0,0,0,0,0,-4.7735,-4.7738,-4.7869,-4.787,-4.787,-4.7908,-4.7909,-4.7909,-4.7845,-4.7843,-4.784,-4.7838,-4.7874,-4.7878,-4.7882,0,0,0,0,0,0,0,0,0,0,0,0,0,-4.7786,-4.7739,-4.7869,-4.7843,-4.7841,-4.7908,-4.7909,-4.7909,-4.7846,-4.7843,-4.7839,-4.7836,-4.7873,-4.7878,-4.7882,-4.7975,0,0,-4.7896,-4.7898,0,0,0,0,0,0,0,0,-4.7783,-4.7791,-4.7846,-4.7845,-4.7843,-4.7868,-4.7875,-4.7931,-4.7847,-4.7844,-4.7839,-4.7835,-4.7876,-4.788,-4.7894,-4.7977,-4.7978,-4.7896,-4.7899,-4.7901,-4.7902,0,0,0,0,0,0,0,-4.778,-4.7789,-4.7884,-4.7847,-4.7845,-4.7828,-4.7832,-4.7885,-4.7877,-4.7844,-4.7839,-4.7845,-4.7874,-4.789,-4.7894,-4.7979,-4.7896,-4.79,-4.7903,-4.7905,-4.8138,-4.8142,0,0,0,0,0,0,-4.778,-4.7786,-4.7883,-4.7886,-4.7804,-4.7833,-4.7837,-4.7863,-4.7877,-4.7876,-4.7848,-4.7842,-4.7884,-4.7889,-4.7895,-4.8004,-4.7901,-4.7905,-4.7908,-4.8135,-4.8139,-4.8143,0,0,0,0,0,0,-4.7777,-4.7789,-4.7882,-4.7835,-4.7845,-4.7839,-4.7869,-4.7866,-4.7882,-4.788,-4.7878,-4.7866,-4.7881,-4.7889,-4.7956,-4.8005,-4.7907,-4.7911,-4.8131,-4.8136,-4.8141,-4.8223,0,0,0,0,0,0,-4.7774,-4.7789,-4.7825,-4.7836,-4.7848,-4.7943,-4.7872,-4.7869,-4.789,-4.7883,-4.7896,-4.7895,-4.7879,-4.7949,-4.796,-4.8009,-4.7915,-4.8126,-4.8133,-4.8139,-4.8216,-4.8231,-4.8243,0,0,0,0,0,-4.7769,-4.7846,-4.7827,-4.7839,-4.7894,-4.7946,-4.7952,-4.7934,-4.7894,-4.793,-4.7928,-4.7895,-4.7998,-4.7957,-4.7968,-4.8019,-4.8123,-4.8131,-4.8139,-4.821,-4.8228,-4.8243,0,0,0,0,0,0,-4.784,-4.7847,-4.7826,-4.7909,-4.7928,-4.7935,-4.7979,-4.7953,-4.7982,-4.7974,-4.7948,-4.7952,-4.8023,-4.8028,-4.7982,-4.8109,-4.8054,-4.8064,-4.8104,-4.8121,-4.8134,-4.8131,-4.7918,0,0,0,0,0,-4.7866,-4.7909,-4.7912,-4.7985,-4.7995,-4.7986,-4.8008,-4.7992,-4.8009,-4.8016,-4.802,-4.8037,-4.8073,-4.8097,-4.813,-4.8217,-4.8218,-4.8257,-4.8271,-4.8282,-4.8291,-4.8336,-4.8353,-4.8169,-4.8169,-4.8169,0,0,-4.7918,-4.7928,-4.7956,-4.7999,-4.8012,-4.8055,-4.7993,-4.8042,-4.8073,-4.8023,-4.8086,-4.809,-4.8107,-4.8183,-4.8217,-4.8189,-4.8342,-4.8292,-4.8301,-4.8304,-4.8345,-4.8363,-4.8378,-4.8174,-4.8173,-4.8172,0,0,-4.8037,-4.8049,-4.811,-4.8124,-4.8143,-4.8136,-4.8151,-4.8163,-4.8163,-4.8226,-4.8189,-4.8225,-4.8289,-4.8302,-4.8317,-4.844,-4.8409,-4.8451,-4.8521,-4.8565,-4.8579,-4.8592,-4.8635,-4.865,-4.846,-4.8461,-4.8461,0,-4.8099,-4.8165,-4.8145,-4.8197,-4.8216,-4.8173,-4.8235,-4.8248,-4.8277,-4.8291,-4.8259,-4.8337,-4.8346,-4.8424,-4.8454,-4.8468,-4.8483,-4.8449,-4.8579,-4.8592,-4.8603,-4.8643,-4.866,-4.8465,-4.8465,-4.8464,-4.8464,0,-4.824,-4.8286,-4.8334,-4.8363,-4.8388,-4.8444,-4.8431,-4.8458,-4.844,-4.8436,-4.85,-4.8509,-4.8543,-4.856,-4.8543,-4.8636,-4.8618,-4.8584,-4.8527,-4.8626,-4.8663,-4.8679,-4.8472,-4.8471,-4.8469,-4.8468,0,0,-4.8405,-4.8422,-4.844,-4.8452,-4.847,-4.8505,-4.8558,-4.8592,-4.8615,-4.8636,-4.8679,-4.8733,-4.8701,-4.8718,-4.8702,-4.8741,-4.8835,-4.8701,-4.8701,-4.8725,-4.8937,-4.8962,-4.8981,-4.8816,-4.8818,-4.8821,-4.8935,0,-4.8522,-4.8615,-4.8598,-4.8688,-4.873,-4.8689,-4.8736,-4.8751,-4.8749,-4.8782,-4.8779,-4.8817,-4.8772,-4.8782,-4.8819,-4.8816,-4.8878,-4.8808,-4.8854,-4.8856,-4.885,-4.9,-4.9027,-4.9135,-4.895,-4.8952,-4.8954,0,-4.8671,-4.8698,-4.8793,-4.8803,-4.882,-4.8862,-4.8891,-4.8924,-4.894,-4.8935,-4.8954,-4.893,-4.8981,-4.8925,-4.8995,-4.8948,-4.8965,-4.8967,-4.8971,-4.8973,-4.891,-4.9006,-4.9169,-4.9185,-4.8977,-4.8975,-4.8974,0,-4.8779,-4.884,-4.8904,-4.8916,-4.893,-4.896,-4.8967,-4.898,-4.9001,-4.9026,-4.9039,-4.9069,-4.9086,-4.9109,-4.9093,-4.9054,-4.9165,-4.9108,-4.9162,-4.9162,-4.9186,-4.9185,-4.9353,-4.92,-4.9199,-4.9199,-4.9199,0,-4.8911,-4.897,-4.8953,-4.8992,-4.9057,-4.9036,-4.91,-4.9102,-4.9114,-4.9152,-4.9119,-4.9155,-4.9132,-4.9166,-4.9154,-4.9213,-4.922,-4.9217,-4.9213,-4.922,-4.922,-4.923,-4.9222,-4.9203,-4.9202,-4.9202,-4.9201,0,-4.9043,-4.9034,-4.9101,-4.9109,-4.9112,-4.916,-4.9165,-4.9201,-4.9196,-4.9245,-4.9255,-4.9247,-4.9285,-4.9271,-4.9312,-4.9304,-4.9378,-4.9365,-4.9373,-4.937,-4.9424,-4.9418,-4.9604,-4.9627,-4.946,-4.9461,-4.9463,0,-4.9128,-4.9172,-4.9185,-4.9208,-4.9218,-4.9256,-4.9278,-4.9258,-4.9282,-4.9303,-4.9336,-4.9371,-4.9398,-4.946,-4.9457,-4.9488,-4.9474,-4.9537,-4.9478,-4.9483,-4.9474,-4.9471,-4.9475,-4.9549,-4.9551,-4.9552,-4.9553,0,-4.9278,-4.9271,-4.9303,-4.9334,-4.9361,-4.9384,-4.9404,-4.9425,-4.9406,-4.9434,-4.9473,-4.9494,-4.9536,-4.957,-4.9598,-4.9603,-4.9575,-4.9572,-4.9586,-4.9593,-4.9595,-4.9593,-4.9404,-4.9568,-4.9566,-4.9565,-4.9564,-4.9564,-4.9388,-4.9425,-4.944,-4.9476,-4.949,-4.9509,-4.9543,-4.9542,-4.9575,-4.9607,-4.9594,-4.9638,-4.9651,-4.9685,-4.9695,-4.9728,-4.9704,-4.9724,-4.9729,-4.9734,-4.9741,-4.9591,-4.9733,-4.9733,-4.9732,-4.9732,-4.9732,0,-4.9535,-4.9542,-4.9577,-4.9606,-4.9635,-4.9607,-4.9627,-4.9652,-4.9692,-4.9708,-4.9735,-4.9779,-4.9812,-4.9812,-4.9843,-4.987,-4.9857,-4.9878,-4.9875,-4.9877,-4.9761,-4.9746,-4.9888,-4.9887,-4.9887,-4.9887,-4.9887,-4.9887,-4.9615,-4.9676,-4.9671,-4.9738,-4.9744,-4.9788,-4.9802,-4.9819,-4.9831,-4.9882,-4.991,-4.991,-4.9918,-4.9949,-4.9978,-4.9977,-4.9989,-5.0015,-5.0009,-4.9901,-4.9885,-4.987,-4.9856,-5.0018,-5.0018,-5.0121,-5.0122,-5.0123]}]]